Location: Buckland
(65.9785°N, 161.1281°W)
Time: 07:34:30
(UTC+00:00)

Transit 2A Rocket - Pass Details

Date: 05 December 2020
Orbit: 592 x 910 km, 66.7° (Epoch: 21 January)

Event Time Altitude Azimuth Distance (km) Brightness Sun altitude
Exits shadow 17:50:28 19° 289° (WNW) 1,732 6.2 -13.2°
Maximum altitude 17:54:06 61° 214° (SW) 811 5.1 -12.9°
Drops below altitude 10° 17:58:47 10° 135° (SE) 2,096 8.6 -12.5°
Sets 18:01:00 0° 132° (SE) 2,964 9.8 -12.3°
